Year,Month,Day,Hour,Minute,Value (Times are PST for temperature in C)
2017,08,20,00,00,13.00
2017,08,20,00,01,13.00
2017,08,20,00,02,13.00
2017,08,20,00,03,13.00
2017,08,20,00,04,13.00
2017,08,20,00,05,13.00
2017,08,20,00,06,13.00
2017,08,20,00,07,13.00
2017,08,20,00,08,13.00
2017,08,20,00,09,13.00
2017,08,20,00,10,13.00
2017,08,20,00,11,13.00
2017,08,20,00,12,13.00
2017,08,20,00,13,13.00
2017,08,20,00,14,13.00
2017,08,20,00,15,13.00
2017,08,20,00,16,13.00
2017,08,20,00,17,12.90
2017,08,20,00,18,12.90
2017,08,20,00,19,12.90
2017,08,20,00,20,12.90
2017,08,20,00,21,12.90
2017,08,20,00,22,12.90
2017,08,20,00,23,12.90
2017,08,20,00,24,12.90
2017,08,20,00,25,12.90
2017,08,20,00,26,12.90
2017,08,20,00,27,12.90
2017,08,20,00,28,12.90
2017,08,20,00,29,12.90
2017,08,20,00,30,12.90
2017,08,20,00,31,12.90
2017,08,20,00,32,12.90
2017,08,20,00,33,12.90
2017,08,20,00,34,12.80
2017,08,20,00,35,12.80
2017,08,20,00,36,12.80
2017,08,20,00,37,12.80
2017,08,20,00,38,12.80
2017,08,20,00,39,12.80
2017,08,20,00,40,12.80
2017,08,20,00,41,12.80
2017,08,20,00,42,12.70
2017,08,20,00,43,12.70
2017,08,20,00,44,12.70
2017,08,20,00,45,12.70
2017,08,20,00,46,12.70
2017,08,20,00,47,12.70
2017,08,20,00,48,12.70
2017,08,20,00,49,12.70
2017,08,20,00,50,12.70
2017,08,20,00,51,12.70
2017,08,20,00,52,12.70
2017,08,20,00,53,12.70
2017,08,20,00,54,12.60
2017,08,20,00,55,12.60
2017,08,20,00,56,12.60
2017,08,20,00,57,12.60
2017,08,20,00,58,12.60
2017,08,20,00,59,12.60
2017,08,20,01,00,12.60
2017,08,20,01,01,12.60
2017,08,20,01,02,12.60
2017,08,20,01,03,12.60
2017,08,20,01,04,12.60
2017,08,20,01,05,12.60
2017,08,20,01,06,12.60
2017,08,20,01,07,12.60
2017,08,20,01,08,12.60
2017,08,20,01,09,12.60
2017,08,20,01,10,12.60
2017,08,20,01,11,12.60
2017,08,20,01,12,12.60
2017,08,20,01,13,12.60
2017,08,20,01,14,12.60
2017,08,20,01,15,12.70
2017,08,20,01,16,12.70
2017,08,20,01,17,12.70
2017,08,20,01,18,12.70
2017,08,20,01,19,12.70
2017,08,20,01,20,12.70
2017,08,20,01,21,12.70
2017,08,20,01,22,12.70
2017,08,20,01,23,12.70
2017,08,20,01,24,12.70
2017,08,20,01,25,12.70
2017,08,20,01,26,12.70
2017,08,20,01,27,12.60
2017,08,20,01,28,12.60
2017,08,20,01,29,12.70
2017,08,20,01,30,12.70
2017,08,20,01,31,12.70
2017,08,20,01,32,12.70
2017,08,20,01,33,12.70
2017,08,20,01,34,12.60
2017,08,20,01,35,12.60
2017,08,20,01,36,12.60
2017,08,20,01,37,12.60
2017,08,20,01,38,12.60
2017,08,20,01,39,12.60
2017,08,20,01,40,12.60
2017,08,20,01,41,12.60
2017,08,20,01,42,12.60
2017,08,20,01,43,12.50
2017,08,20,01,44,12.50
2017,08,20,01,45,12.50
2017,08,20,01,46,12.50
2017,08,20,01,47,12.50
2017,08,20,01,48,12.40
2017,08,20,01,49,12.40
2017,08,20,01,50,12.40
2017,08,20,01,51,12.40
2017,08,20,01,52,12.40
2017,08,20,01,53,12.40
2017,08,20,01,54,12.40
2017,08,20,01,55,12.30
2017,08,20,01,56,12.30
2017,08,20,01,57,12.30
2017,08,20,01,58,12.30
2017,08,20,01,59,12.30
2017,08,20,02,00,12.30
2017,08,20,02,01,12.30
2017,08,20,02,02,12.30
2017,08,20,02,03,12.20
2017,08,20,02,04,12.20
2017,08,20,02,05,12.20
2017,08,20,02,06,12.20
2017,08,20,02,07,12.20
2017,08,20,02,08,12.20
2017,08,20,02,09,12.10
2017,08,20,02,10,12.10
2017,08,20,02,11,12.10
2017,08,20,02,12,12.10
2017,08,20,02,13,12.10
2017,08,20,02,14,12.10
2017,08,20,02,15,12.00
2017,08,20,02,16,12.00
2017,08,20,02,17,12.00
2017,08,20,02,18,12.00
2017,08,20,02,19,12.00
2017,08,20,02,20,11.90
2017,08,20,02,21,11.90
2017,08,20,02,22,11.90
2017,08,20,02,23,11.90
2017,08,20,02,24,11.90
2017,08,20,02,25,11.90
2017,08,20,02,26,11.90
2017,08,20,02,27,11.90
2017,08,20,02,28,11.90
2017,08,20,02,29,11.90
2017,08,20,02,30,11.90
2017,08,20,02,31,11.90
2017,08,20,02,32,12.00
2017,08,20,02,33,12.00
2017,08,20,02,34,12.00
2017,08,20,02,35,12.00
2017,08,20,02,36,12.00
2017,08,20,02,37,12.00
2017,08,20,02,38,12.00
2017,08,20,02,39,12.00
2017,08,20,02,40,11.90
2017,08,20,02,41,11.90
2017,08,20,02,42,11.90
2017,08,20,02,43,11.90
2017,08,20,02,44,11.90
2017,08,20,02,45,11.90
2017,08,20,02,46,11.90
2017,08,20,02,47,11.90
2017,08,20,02,48,11.90
2017,08,20,02,49,11.90
2017,08,20,02,50,11.90
2017,08,20,02,51,11.90
2017,08,20,02,52,11.90
2017,08,20,02,53,11.90
2017,08,20,02,54,11.90
2017,08,20,02,55,11.90
2017,08,20,02,56,11.90
2017,08,20,02,57,11.90
2017,08,20,02,58,11.90
2017,08,20,02,59,11.90
2017,08,20,03,00,11.80
2017,08,20,03,01,11.80
2017,08,20,03,02,11.80
2017,08,20,03,03,11.80
2017,08,20,03,04,11.80
2017,08,20,03,05,11.80
2017,08,20,03,06,11.80
2017,08,20,03,07,11.70
2017,08,20,03,08,11.70
2017,08,20,03,09,11.70
2017,08,20,03,10,11.70
2017,08,20,03,11,11.70
2017,08,20,03,12,11.70
2017,08,20,03,13,11.70
2017,08,20,03,14,11.70
2017,08,20,03,15,11.70
2017,08,20,03,16,11.70
2017,08,20,03,17,11.70
2017,08,20,03,18,11.60
2017,08,20,03,19,11.60
2017,08,20,03,20,11.60
2017,08,20,03,21,11.60
2017,08,20,03,22,11.60
2017,08,20,03,23,11.60
2017,08,20,03,24,11.60
2017,08,20,03,25,11.60
2017,08,20,03,26,11.60
2017,08,20,03,27,11.60
2017,08,20,03,28,11.60
2017,08,20,03,29,11.60
2017,08,20,03,30,11.60
2017,08,20,03,31,11.50
2017,08,20,03,32,11.50
2017,08,20,03,33,11.50
2017,08,20,03,34,11.50
2017,08,20,03,35,11.40
2017,08,20,03,36,11.40
2017,08,20,03,37,11.40
2017,08,20,03,38,11.40
2017,08,20,03,39,11.40
2017,08,20,03,40,11.40
2017,08,20,03,41,11.40
2017,08,20,03,42,11.40
2017,08,20,03,43,11.40
2017,08,20,03,44,11.40
2017,08,20,03,45,11.40
2017,08,20,03,46,11.40
2017,08,20,03,47,11.40
2017,08,20,03,48,11.30
2017,08,20,03,49,11.30
2017,08,20,03,50,11.30
2017,08,20,03,51,11.30
2017,08,20,03,52,11.30
2017,08,20,03,53,11.30
2017,08,20,03,54,11.30
2017,08,20,03,55,11.30
2017,08,20,03,56,11.30
2017,08,20,03,57,11.30
2017,08,20,03,58,11.30
2017,08,20,03,59,11.30
2017,08,20,04,00,11.30
2017,08,20,04,01,11.30
2017,08,20,04,02,11.30
2017,08,20,04,03,11.20
2017,08,20,04,04,11.20
2017,08,20,04,05,11.20
2017,08,20,04,06,11.20
2017,08,20,04,07,11.20
2017,08,20,04,08,11.20
2017,08,20,04,09,11.20
2017,08,20,04,10,11.20
2017,08,20,04,11,11.20
2017,08,20,04,12,11.20
2017,08,20,04,13,11.20
2017,08,20,04,14,11.20
2017,08,20,04,15,11.20
2017,08,20,04,16,11.20
2017,08,20,04,17,11.20
2017,08,20,04,18,11.30
2017,08,20,04,19,11.30
2017,08,20,04,20,11.30
2017,08,20,04,21,11.30
2017,08,20,04,22,11.30
2017,08,20,04,23,11.30
2017,08,20,04,24,11.30
2017,08,20,04,25,11.30
2017,08,20,04,26,11.30
2017,08,20,04,27,11.30
2017,08,20,04,28,11.30
2017,08,20,04,29,11.30
2017,08,20,04,30,11.40
2017,08,20,04,31,11.40
2017,08,20,04,32,11.50
2017,08,20,04,33,11.50
2017,08,20,04,34,11.60
2017,08,20,04,35,11.60
2017,08,20,04,36,11.70
2017,08,20,04,37,11.70
2017,08,20,04,38,11.70
2017,08,20,04,39,11.80
2017,08,20,04,40,11.80
2017,08,20,04,41,11.80
2017,08,20,04,42,11.90
2017,08,20,04,43,11.90
2017,08,20,04,44,11.90
2017,08,20,04,45,11.90
2017,08,20,04,46,12.00
2017,08,20,04,47,12.00
2017,08,20,04,48,12.00
2017,08,20,04,49,12.10
2017,08,20,04,50,12.10
2017,08,20,04,51,12.20
2017,08,20,04,52,12.20
2017,08,20,04,53,12.20
2017,08,20,04,54,12.20
2017,08,20,04,55,12.20
2017,08,20,04,56,12.20
2017,08,20,04,57,12.20
2017,08,20,04,58,12.20
2017,08,20,04,59,12.20
2017,08,20,05,00,12.30
2017,08,20,05,01,12.30
2017,08,20,05,02,12.30
2017,08,20,05,03,12.30
2017,08,20,05,04,12.30
2017,08,20,05,05,12.30
2017,08,20,05,06,12.30
2017,08,20,05,07,12.30
2017,08,20,05,08,12.20
2017,08,20,05,09,12.20
2017,08,20,05,10,12.20
2017,08,20,05,11,12.20
2017,08,20,05,12,12.20
2017,08,20,05,13,12.20
2017,08,20,05,14,12.20
2017,08,20,05,15,12.20
2017,08,20,05,16,12.20
2017,08,20,05,17,12.20
2017,08,20,05,18,12.10
2017,08,20,05,19,12.10
2017,08,20,05,20,12.10
2017,08,20,05,21,12.10
2017,08,20,05,22,12.10
2017,08,20,05,23,12.10
2017,08,20,05,24,12.10
2017,08,20,05,25,12.10
2017,08,20,05,26,12.10
2017,08,20,05,27,12.10
2017,08,20,05,28,12.10
2017,08,20,05,29,12.10
2017,08,20,05,30,12.10
2017,08,20,05,31,12.10
2017,08,20,05,32,12.10
2017,08,20,05,33,12.10
2017,08,20,05,34,12.10
2017,08,20,05,35,12.10
2017,08,20,05,36,12.10
2017,08,20,05,37,12.10
2017,08,20,05,38,12.10
2017,08,20,05,39,12.00
2017,08,20,05,40,12.00
2017,08,20,05,41,12.00
2017,08,20,05,42,12.00
2017,08,20,05,43,11.90
2017,08,20,05,44,11.90
2017,08,20,05,45,11.90
2017,08,20,05,46,11.90
2017,08,20,05,47,11.90
2017,08,20,05,48,11.90
2017,08,20,05,49,11.90
2017,08,20,05,50,11.80
2017,08,20,05,51,11.80
2017,08,20,05,52,11.80
2017,08,20,05,53,11.80
2017,08,20,05,54,11.80
2017,08,20,05,55,11.80
2017,08,20,05,56,11.70
2017,08,20,05,57,11.70
2017,08,20,05,58,11.70
2017,08,20,05,59,11.70
2017,08,20,06,00,11.70
2017,08,20,06,01,11.70
2017,08,20,06,02,11.70
2017,08,20,06,03,11.70
2017,08,20,06,04,11.70
2017,08,20,06,05,11.70
2017,08,20,06,06,11.60
2017,08,20,06,07,11.70
2017,08,20,06,08,11.70
2017,08,20,06,09,11.70
2017,08,20,06,10,11.60
2017,08,20,06,11,11.60
2017,08,20,06,12,11.60
2017,08,20,06,13,11.60
2017,08,20,06,14,11.60
2017,08,20,06,15,11.60
2017,08,20,06,16,11.60
2017,08,20,06,17,11.60
2017,08,20,06,18,11.60
2017,08,20,06,19,11.60
2017,08,20,06,20,11.60
2017,08,20,06,21,11.60
2017,08,20,06,22,11.60
2017,08,20,06,23,11.60
2017,08,20,06,24,11.60
2017,08,20,06,25,11.60
2017,08,20,06,26,11.70
2017,08,20,06,27,11.60
2017,08,20,06,28,11.70
2017,08,20,06,29,11.60
2017,08,20,06,30,11.70
2017,08,20,06,31,11.70
2017,08,20,06,32,11.70
2017,08,20,06,33,11.70
2017,08,20,06,34,11.70
2017,08,20,06,35,11.70
2017,08,20,06,36,11.70
2017,08,20,06,37,11.70
2017,08,20,06,38,11.70
2017,08,20,06,39,11.70
2017,08,20,06,40,11.70
2017,08,20,06,41,11.70
2017,08,20,06,42,11.70
2017,08,20,06,43,11.70
2017,08,20,06,44,11.70
2017,08,20,06,45,11.70
2017,08,20,06,46,11.70
2017,08,20,06,47,11.80
2017,08,20,06,48,11.80
2017,08,20,06,49,11.80
2017,08,20,06,50,11.80
2017,08,20,06,51,11.80
2017,08,20,06,52,11.80
2017,08,20,06,53,11.80
2017,08,20,06,54,11.80
2017,08,20,06,55,11.80
2017,08,20,06,56,11.90
2017,08,20,06,57,11.90
2017,08,20,06,58,11.90
2017,08,20,06,59,11.90
2017,08,20,07,00,11.90
2017,08,20,07,01,11.90
2017,08,20,07,02,12.00
2017,08,20,07,03,12.00
2017,08,20,07,04,12.00
2017,08,20,07,05,12.00
2017,08,20,07,06,12.10
2017,08,20,07,07,12.10
2017,08,20,07,08,12.10
2017,08,20,07,09,12.20
2017,08,20,07,10,12.20
2017,08,20,07,11,12.20
2017,08,20,07,12,12.30
2017,08,20,07,13,12.30
2017,08,20,07,14,12.30
2017,08,20,07,15,12.30
2017,08,20,07,16,12.40
2017,08,20,07,17,12.40
2017,08,20,07,18,12.50
2017,08,20,07,19,12.50
2017,08,20,07,20,12.60
2017,08,20,07,21,12.60
2017,08,20,07,22,12.70
2017,08,20,07,23,12.70
2017,08,20,07,24,12.70
2017,08,20,07,25,12.80
2017,08,20,07,26,12.80
2017,08,20,07,27,12.90
2017,08,20,07,28,13.00
2017,08,20,07,29,13.00
2017,08,20,07,30,13.10
2017,08,20,07,31,13.20
2017,08,20,07,32,13.30
2017,08,20,07,33,13.40
2017,08,20,07,34,13.50
2017,08,20,07,35,13.60
2017,08,20,07,36,13.70
2017,08,20,07,37,13.80
2017,08,20,07,38,13.90
2017,08,20,07,39,14.00
2017,08,20,07,40,14.10
2017,08,20,07,41,14.20
2017,08,20,07,42,14.30
2017,08,20,07,43,14.40
2017,08,20,07,44,14.50
2017,08,20,07,45,14.50
2017,08,20,07,46,14.60
2017,08,20,07,47,14.70
2017,08,20,07,48,14.80
2017,08,20,07,49,14.80
2017,08,20,07,50,14.90
2017,08,20,07,51,15.00
2017,08,20,07,52,15.00
2017,08,20,07,53,15.10
2017,08,20,07,54,15.10
2017,08,20,07,55,15.20
2017,08,20,07,56,15.20
2017,08,20,07,57,15.30
2017,08,20,07,58,15.40
2017,08,20,07,59,15.50
2017,08,20,08,00,15.60
2017,08,20,08,01,15.60
2017,08,20,08,02,15.70
2017,08,20,08,03,15.70
2017,08,20,08,04,15.70
2017,08,20,08,05,15.80
2017,08,20,08,06,15.80
2017,08,20,08,07,15.80
2017,08,20,08,08,15.80
2017,08,20,08,09,15.80
2017,08,20,08,10,15.90
2017,08,20,08,11,15.80
2017,08,20,08,12,15.80
2017,08,20,08,13,15.80
2017,08,20,08,14,15.80
2017,08,20,08,15,15.80
2017,08,20,08,16,15.80
2017,08,20,08,17,15.70
2017,08,20,08,18,15.70
2017,08,20,08,19,15.60
2017,08,20,08,20,15.60
2017,08,20,08,21,15.60
2017,08,20,08,22,15.60
2017,08,20,08,23,15.60
2017,08,20,08,24,15.60
2017,08,20,08,25,15.60
2017,08,20,08,26,15.60
2017,08,20,08,27,15.60
2017,08,20,08,28,15.60
2017,08,20,08,29,15.60
2017,08,20,08,30,15.60
2017,08,20,08,31,15.60
2017,08,20,08,32,15.60
2017,08,20,08,33,15.60
2017,08,20,08,34,15.60
2017,08,20,08,35,15.60
2017,08,20,08,36,15.60
2017,08,20,08,37,15.60
2017,08,20,08,38,15.60
2017,08,20,08,39,15.70
2017,08,20,08,40,15.70
2017,08,20,08,41,15.80
2017,08,20,08,42,15.80
2017,08,20,08,43,15.80
2017,08,20,08,44,15.90
2017,08,20,08,45,15.90
2017,08,20,08,46,16.00
2017,08,20,08,47,16.00
2017,08,20,08,48,16.10
2017,08,20,08,49,16.10
2017,08,20,08,50,16.10
2017,08,20,08,51,16.20
2017,08,20,08,52,16.20
2017,08,20,08,53,16.30
2017,08,20,08,54,16.30
2017,08,20,08,55,16.30
2017,08,20,08,56,16.40
2017,08,20,08,57,16.40
2017,08,20,08,58,16.40
2017,08,20,08,59,16.50
2017,08,20,09,00,16.60
2017,08,20,09,01,16.70
2017,08,20,09,02,16.80
2017,08,20,09,03,16.90
2017,08,20,09,04,17.00
2017,08,20,09,05,17.10
2017,08,20,09,06,17.10
2017,08,20,09,07,17.20
2017,08,20,09,08,17.20
2017,08,20,09,09,17.20
2017,08,20,09,10,17.30
2017,08,20,09,11,17.30
2017,08,20,09,12,17.30
2017,08,20,09,13,17.40
2017,08,20,09,14,17.40
2017,08,20,09,15,17.50
2017,08,20,09,16,17.50
2017,08,20,09,17,17.60
2017,08,20,09,18,17.60
2017,08,20,09,19,17.70
2017,08,20,09,20,17.70
2017,08,20,09,21,17.80
2017,08,20,09,22,17.80
2017,08,20,09,23,17.80
2017,08,20,09,24,17.90
2017,08,20,09,25,18.00
2017,08,20,09,26,18.10
2017,08,20,09,27,18.20
2017,08,20,09,28,18.30
2017,08,20,09,29,18.30
2017,08,20,09,30,18.40
2017,08,20,09,31,18.40
2017,08,20,09,32,18.50
2017,08,20,09,33,18.60
2017,08,20,09,34,18.70
2017,08,20,09,35,18.70
2017,08,20,09,36,18.80
2017,08,20,09,37,18.80
2017,08,20,09,38,18.90
2017,08,20,09,39,18.90
2017,08,20,09,40,19.00
2017,08,20,09,41,19.00
2017,08,20,09,42,19.00
2017,08,20,09,43,19.10
2017,08,20,09,44,19.10
2017,08,20,09,45,19.20
2017,08,20,09,46,19.20
2017,08,20,09,47,19.30
2017,08,20,09,48,19.30
2017,08,20,09,49,19.40
2017,08,20,09,50,19.40
2017,08,20,09,51,19.50
2017,08,20,09,52,19.50
2017,08,20,09,53,19.40
2017,08,20,09,54,19.30
2017,08,20,09,55,19.20
2017,08,20,09,56,19.20
2017,08,20,09,57,19.20
2017,08,20,09,58,19.20
2017,08,20,09,59,19.20
2017,08,20,10,00,19.30
2017,08,20,10,01,19.20
2017,08,20,10,02,19.20
2017,08,20,10,03,19.20
2017,08,20,10,04,19.30
2017,08,20,10,05,19.30
2017,08,20,10,06,19.30
2017,08,20,10,07,19.40
2017,08,20,10,08,19.40
2017,08,20,10,09,19.40
2017,08,20,10,10,19.50
2017,08,20,10,11,19.50
2017,08,20,10,12,19.60
2017,08,20,10,13,19.70
2017,08,20,10,14,19.80
2017,08,20,10,15,19.90
2017,08,20,10,16,19.90
2017,08,20,10,17,20.00
2017,08,20,10,18,20.00
2017,08,20,10,19,20.00
2017,08,20,10,20,20.00
2017,08,20,10,21,20.10
2017,08,20,10,22,20.10
2017,08,20,10,23,20.20
2017,08,20,10,24,20.10
2017,08,20,10,25,20.00
2017,08,20,10,26,20.00
2017,08,20,10,27,20.00
2017,08,20,10,28,20.00
2017,08,20,10,29,19.90
2017,08,20,10,30,19.90
2017,08,20,10,31,19.90
2017,08,20,10,32,19.90
2017,08,20,10,33,19.90
2017,08,20,10,34,19.90
2017,08,20,10,35,20.00
2017,08,20,10,36,20.00
2017,08,20,10,37,20.00
2017,08,20,10,38,20.00
2017,08,20,10,39,19.90
2017,08,20,10,40,19.90
2017,08,20,10,41,20.00
2017,08,20,10,42,20.00
2017,08,20,10,43,20.10
2017,08,20,10,44,20.10
2017,08,20,10,45,20.20
2017,08,20,10,46,20.20
2017,08,20,10,47,20.20
2017,08,20,10,48,20.20
2017,08,20,10,49,20.20
2017,08,20,10,50,20.30
2017,08,20,10,51,20.30
2017,08,20,10,52,20.30
2017,08,20,10,53,20.30
2017,08,20,10,54,20.30
2017,08,20,10,55,20.40
2017,08,20,10,56,20.40
2017,08,20,10,57,20.30
2017,08,20,10,58,20.30
2017,08,20,10,59,20.20
2017,08,20,11,00,20.20
2017,08,20,11,01,20.10
2017,08,20,11,02,20.10
2017,08,20,11,03,20.10
2017,08,20,11,04,20.10
2017,08,20,11,05,20.20
2017,08,20,11,06,20.20
2017,08,20,11,07,20.20
2017,08,20,11,08,20.20
2017,08,20,11,09,20.20
2017,08,20,11,10,20.20
2017,08,20,11,11,20.20
2017,08,20,11,12,20.30
2017,08,20,11,13,20.30
2017,08,20,11,14,20.40
2017,08,20,11,15,20.50
2017,08,20,11,16,20.60
2017,08,20,11,17,20.70
2017,08,20,11,18,20.80
2017,08,20,11,19,20.80
2017,08,20,11,20,20.90
2017,08,20,11,21,21.00
2017,08,20,11,22,21.10
2017,08,20,11,23,21.10
2017,08,20,11,24,21.20
2017,08,20,11,25,21.20
2017,08,20,11,26,21.20
2017,08,20,11,27,21.30
2017,08,20,11,28,21.40
2017,08,20,11,29,21.50
2017,08,20,11,30,21.60
2017,08,20,11,31,21.70
2017,08,20,11,32,21.70
2017,08,20,11,33,21.70
2017,08,20,11,34,21.70
2017,08,20,11,35,21.70
2017,08,20,11,36,21.70
2017,08,20,11,37,21.60
2017,08,20,11,38,21.60
2017,08,20,11,39,21.50
2017,08,20,11,40,21.40
2017,08,20,11,41,21.40
2017,08,20,11,42,21.40
2017,08,20,11,43,21.50
2017,08,20,11,44,21.50
2017,08,20,11,45,21.60
2017,08,20,11,46,21.60
2017,08,20,11,47,21.60
2017,08,20,11,48,21.60
2017,08,20,11,49,21.70
2017,08,20,11,50,21.60
2017,08,20,11,51,21.60
2017,08,20,11,52,21.60
2017,08,20,11,53,21.50
2017,08,20,11,54,21.50
2017,08,20,11,55,21.40
2017,08,20,11,56,21.30
2017,08,20,11,57,21.20
2017,08,20,11,58,21.10
2017,08,20,11,59,20.90
2017,08,20,12,00,20.70
2017,08,20,12,01,20.60
2017,08,20,12,02,20.50
2017,08,20,12,03,20.40
2017,08,20,12,04,20.40
2017,08,20,12,05,20.40
2017,08,20,12,06,20.50
2017,08,20,12,07,20.40
2017,08,20,12,08,20.30
2017,08,20,12,09,20.30
2017,08,20,12,10,20.30
2017,08,20,12,11,20.30
2017,08,20,12,12,20.20
2017,08,20,12,13,20.20
2017,08,20,12,14,20.20
2017,08,20,12,15,20.10
2017,08,20,12,16,20.10
2017,08,20,12,17,20.20
2017,08,20,12,18,20.20
2017,08,20,12,19,20.20
2017,08,20,12,20,20.10
2017,08,20,12,21,20.10
2017,08,20,12,22,20.10
2017,08,20,12,23,20.10
2017,08,20,12,24,20.10
2017,08,20,12,25,20.10
2017,08,20,12,26,20.10
2017,08,20,12,27,20.10
2017,08,20,12,28,20.10
2017,08,20,12,29,20.10
2017,08,20,12,30,20.10
2017,08,20,12,31,20.20
2017,08,20,12,32,20.30
2017,08,20,12,33,20.40
2017,08,20,12,34,20.40
2017,08,20,12,35,20.50
2017,08,20,12,36,20.50
2017,08,20,12,37,20.60
2017,08,20,12,38,20.60
2017,08,20,12,39,20.70
2017,08,20,12,40,20.80
2017,08,20,12,41,20.90
2017,08,20,12,42,20.90
2017,08,20,12,43,20.90
2017,08,20,12,44,20.80
2017,08,20,12,45,20.80
2017,08,20,12,46,20.70
2017,08,20,12,47,20.70
2017,08,20,12,48,20.70
2017,08,20,12,49,20.60
2017,08,20,12,50,20.60
2017,08,20,12,51,20.60
2017,08,20,12,52,20.70
2017,08,20,12,53,20.70
2017,08,20,12,54,20.80
2017,08,20,12,55,20.80
2017,08,20,12,56,20.80
2017,08,20,12,57,20.80
2017,08,20,12,58,20.80
2017,08,20,12,59,20.80
2017,08,20,13,00,20.80
2017,08,20,13,01,20.80
2017,08,20,13,02,20.70
2017,08,20,13,03,20.70
2017,08,20,13,04,20.60
2017,08,20,13,05,20.50
2017,08,20,13,06,20.50
2017,08,20,13,07,20.40
2017,08,20,13,08,20.40
2017,08,20,13,09,20.40
2017,08,20,13,10,20.40
2017,08,20,13,11,20.40
2017,08,20,13,12,20.50
2017,08,20,13,13,20.50
2017,08,20,13,14,20.60
2017,08,20,13,15,20.70
2017,08,20,13,16,20.80
2017,08,20,13,17,20.80
2017,08,20,13,18,20.80
2017,08,20,13,19,20.80
2017,08,20,13,20,20.80
2017,08,20,13,21,20.70
2017,08,20,13,22,20.70
2017,08,20,13,23,20.80
2017,08,20,13,24,20.80
2017,08,20,13,25,20.70
2017,08,20,13,26,20.70
2017,08,20,13,27,20.70
2017,08,20,13,28,20.80
2017,08,20,13,29,20.80
2017,08,20,13,30,21.00
2017,08,20,13,31,21.10
2017,08,20,13,32,21.20
2017,08,20,13,33,21.20
2017,08,20,13,34,21.20
2017,08,20,13,35,21.20
2017,08,20,13,36,21.20
2017,08,20,13,37,21.30
2017,08,20,13,38,21.30
2017,08,20,13,39,21.40
2017,08,20,13,40,21.50
2017,08,20,13,41,21.60
2017,08,20,13,42,21.60
2017,08,20,13,43,21.60
2017,08,20,13,44,21.60
2017,08,20,13,45,21.60
2017,08,20,13,46,21.50
2017,08,20,13,47,21.50
2017,08,20,13,48,21.50
2017,08,20,13,49,21.40
2017,08,20,13,50,21.40
2017,08,20,13,51,21.40
2017,08,20,13,52,21.40
2017,08,20,13,53,21.40
2017,08,20,13,54,21.40
2017,08,20,13,55,21.40
2017,08,20,13,56,21.40
2017,08,20,13,57,21.40
2017,08,20,13,58,21.50
2017,08,20,13,59,21.60
2017,08,20,14,00,21.60
2017,08,20,14,01,21.60
2017,08,20,14,02,21.60
2017,08,20,14,03,21.60
2017,08,20,14,04,21.60
2017,08,20,14,05,21.60
2017,08,20,14,06,21.70
2017,08,20,14,07,21.70
2017,08,20,14,08,21.70
2017,08,20,14,09,21.80
2017,08,20,14,10,21.80
2017,08,20,14,11,21.80
2017,08,20,14,12,21.80
2017,08,20,14,13,21.80
2017,08,20,14,14,21.90
2017,08,20,14,15,22.00
2017,08,20,14,16,22.00
2017,08,20,14,17,22.20
2017,08,20,14,18,22.30
2017,08,20,14,19,22.50
2017,08,20,14,20,22.50
2017,08,20,14,21,22.50
2017,08,20,14,22,22.40
2017,08,20,14,23,22.40
2017,08,20,14,24,22.40
2017,08,20,14,25,22.40
2017,08,20,14,26,22.40
2017,08,20,14,27,22.40
2017,08,20,14,28,22.40
2017,08,20,14,29,22.40
2017,08,20,14,30,22.40
2017,08,20,14,31,22.40
2017,08,20,14,32,22.40
2017,08,20,14,33,22.40
2017,08,20,14,34,22.30
2017,08,20,14,35,22.40
2017,08,20,14,36,22.40
2017,08,20,14,37,22.50
2017,08,20,14,38,22.60
2017,08,20,14,39,22.70
2017,08,20,14,40,22.70
2017,08,20,14,41,22.60
2017,08,20,14,42,22.50
2017,08,20,14,43,22.40
2017,08,20,14,44,22.30
2017,08,20,14,45,22.20
2017,08,20,14,46,22.20
2017,08,20,14,47,22.30
2017,08,20,14,48,22.30
2017,08,20,14,49,22.30
2017,08,20,14,50,22.30
2017,08,20,14,51,22.40
2017,08,20,14,52,22.50
2017,08,20,14,53,22.50
2017,08,20,14,54,22.60
2017,08,20,14,55,22.70
2017,08,20,14,56,22.80
2017,08,20,14,57,22.80
2017,08,20,14,58,22.70
2017,08,20,14,59,22.60
2017,08,20,15,00,22.50
2017,08,20,15,01,22.50
2017,08,20,15,02,22.50
2017,08,20,15,03,22.50
2017,08,20,15,04,22.60
2017,08,20,15,05,22.60
2017,08,20,15,06,22.60
2017,08,20,15,07,22.60
2017,08,20,15,08,22.50
2017,08,20,15,09,22.50
2017,08,20,15,10,22.60
2017,08,20,15,11,22.60
2017,08,20,15,12,22.60
2017,08,20,15,13,22.60
2017,08,20,15,14,22.60
2017,08,20,15,15,22.60
2017,08,20,15,16,22.60
2017,08,20,15,17,22.70
2017,08,20,15,18,22.70
2017,08,20,15,19,22.70
2017,08,20,15,20,22.80
2017,08,20,15,21,22.70
2017,08,20,15,22,22.60
2017,08,20,15,23,22.60
2017,08,20,15,24,22.60
2017,08,20,15,25,22.60
2017,08,20,15,26,22.70
2017,08,20,15,27,22.60
2017,08,20,15,28,22.60
2017,08,20,15,29,22.50
2017,08,20,15,30,22.40
2017,08,20,15,31,22.40
2017,08,20,15,32,22.40
2017,08,20,15,33,22.30
2017,08,20,15,34,22.30
2017,08,20,15,35,22.30
2017,08,20,15,36,22.30
2017,08,20,15,37,22.30
2017,08,20,15,38,22.30
2017,08,20,15,39,22.30
2017,08,20,15,40,22.30
2017,08,20,15,41,22.30
2017,08,20,15,42,22.30
2017,08,20,15,43,22.40
2017,08,20,15,44,22.40
2017,08,20,15,45,22.50
2017,08,20,15,46,22.50
2017,08,20,15,47,22.60
2017,08,20,15,48,22.60
2017,08,20,15,49,22.60
2017,08,20,15,50,22.70
2017,08,20,15,51,22.70
2017,08,20,15,52,22.70
2017,08,20,15,53,22.70
2017,08,20,15,54,22.70
2017,08,20,15,55,22.70
2017,08,20,15,56,22.70
2017,08,20,15,57,22.70
2017,08,20,15,58,22.60
2017,08,20,15,59,22.60
2017,08,20,16,00,22.50
2017,08,20,16,01,22.50
2017,08,20,16,02,22.50
2017,08,20,16,03,22.40
2017,08,20,16,04,22.40
2017,08,20,16,05,22.40
2017,08,20,16,06,22.50
2017,08,20,16,07,22.50
2017,08,20,16,08,22.60
2017,08,20,16,09,22.60
2017,08,20,16,10,22.70
2017,08,20,16,11,22.70
2017,08,20,16,12,22.70
2017,08,20,16,13,22.70
2017,08,20,16,14,22.60
2017,08,20,16,15,22.50
2017,08,20,16,16,22.50
2017,08,20,16,17,22.40
2017,08,20,16,18,22.40
2017,08,20,16,19,22.40
2017,08,20,16,20,22.40
2017,08,20,16,21,22.40
2017,08,20,16,22,22.50
2017,08,20,16,23,22.50
2017,08,20,16,24,22.60
2017,08,20,16,25,22.60
2017,08,20,16,26,22.50
2017,08,20,16,27,22.50
2017,08,20,16,28,22.40
2017,08,20,16,29,22.30
2017,08,20,16,30,22.30
2017,08,20,16,31,22.30
2017,08,20,16,32,22.30
2017,08,20,16,33,22.30
2017,08,20,16,34,22.30
2017,08,20,16,35,22.30
2017,08,20,16,36,22.30
2017,08,20,16,37,22.30
2017,08,20,16,38,22.20
2017,08,20,16,39,22.10
2017,08,20,16,40,22.10
2017,08,20,16,41,22.00
2017,08,20,16,42,21.90
2017,08,20,16,43,21.90
2017,08,20,16,44,21.80
2017,08,20,16,45,21.80
2017,08,20,16,46,21.80
2017,08,20,16,47,21.80
2017,08,20,16,48,21.80
2017,08,20,16,49,21.80
2017,08,20,16,50,21.80
2017,08,20,16,51,21.80
2017,08,20,16,52,21.80
2017,08,20,16,53,21.70
2017,08,20,16,54,21.70
2017,08,20,16,55,21.70
2017,08,20,16,56,21.70
2017,08,20,16,57,21.60
2017,08,20,16,58,21.60
2017,08,20,16,59,21.60
2017,08,20,17,00,21.50
2017,08,20,17,01,21.50
2017,08,20,17,02,21.40
2017,08,20,17,03,21.40
2017,08,20,17,04,21.40
2017,08,20,17,05,21.30
2017,08,20,17,06,21.30
2017,08,20,17,07,21.30
2017,08,20,17,08,21.30
2017,08,20,17,09,21.30
2017,08,20,17,10,21.30
2017,08,20,17,11,21.30
2017,08,20,17,12,21.30
2017,08,20,17,13,21.30
2017,08,20,17,14,21.30
2017,08,20,17,15,21.30
2017,08,20,17,16,21.30
2017,08,20,17,17,21.30
2017,08,20,17,18,21.30
2017,08,20,17,19,21.30